Location: Unspecified
(0.0000°N, 0.0000°E)
Time: 21:21:26
(UTC+00:00)

DMSP 5D-2 F13 DEB - Pass Details

Date: 09 March 2026
Orbit: 780 x 797 km, 98.7° (Epoch: 11 April)

Event Time Altitude Azimuth Distance (km) Brightness Sun altitude
Rises 20:18:45 0° 204° (SSW) 3,264 ? -32.0°
Reaches altitude 10° 20:22:28 10° 232° (SW) 2,335 ? -32.9°
Maximum altitude 20:24:38 13° 257° (WSW) 2,151 ? -33.4°
Drops below altitude 10° 20:26:48 10° 282° (WNW) 2,335 ? -34.0°
Sets 20:30:32 0° 310° (NW) 3,264 ? -34.9°
